Погода в Смидовиче

Погода в Смидовиче : погода сейчас, прогноз погоды и архив. Всё, что Вы хотите узнать о погоде в Смидовиче!

Поиск расширенной информации на нашем сайте:

Другие новости

Новости СМИ2

Главная страница сайта

Новости сайта

03.07.2017

Напоминаем, что на нашем специализированном сайте Метеоцентр.Азия вы можете получить высокодетализированные автоматические прогнозы погоды по пунктам России, СНГ и мира в авиационном формате (включающие направление и скорость ветра, видимость, явления погоды, количество и форму облачности, нижнюю и верхнюю границу облачности).


Погода в Смидовиче - сегодня

Время (UTC), дата Ветер
(°,м/с) 
Видим.   Явления Облачность Т
(°С)
Тd
(°С)
f(%) Тe
(°С)
Pmin
(гПа)
dP
(гПа)
Po
(мм)
O2
(г/м3)
Тmin Tmax R s Состояние
почвы
21 16.08.17 040 (СВ) 20000 м    3/0 средняя 
[Ac lent]
+16.3 +14.7 90 +26  1015.2  0.6  757  285  +14.2        влажная 
00 17.08.17 050 (СВ) 20000 м    3/0 средняя 
[Ac lent]
+21.3 +14.1 64 +28  1015.3  0.3  757  280           
03 17.08.17 010 (С) 20000 м    4/3 600 м средняя, верхняя 
[Sc|Ac lent|Ci fib]
+23.5 +14.5 57 +31  1014.5  -0.8  757  278           
06 17.08.17 360 (С) 20000 м    6/4 600 м средняя, верхняя 
[Sc|Ac lent|Ci fib]
+24.9 +14.1 51 +32  1013.2  -1.2  756  276           
09 17.08.17 тихо ()   20000 м    3/0 средняя 
[Ac cast]
+24.3 +15.8 59 +34  1012.5  -0.7  755  276    +25.8       
12 17.08.17 180 (Ю) 20000 м    4/4 300 м 
[Sc]
+17.5 +16.1 91 +29  1013.1  0.5  755  283           
15 17.08.17 170 (Ю) 20000 м    4/4 300 м 
[Sc]
+16.7 +15.4 92 +27  1012.9  -0.2  755  283           
18 17.08.17 тихо ()   20000 м    10/10 300 м 
[Sc]
+18.3 +17 92 +30  1012.8  -0.1  755  281           
21 17.08.17 тихо ()   20000 м  {ливн. осадки}  10/8 600 м кучево-дожд., средняя 
[Cb cap|Ac As]
+18.4 +17.2 93 +31  1012.8  755  281  +16.4      влажная 
00 18.08.17 010 (С) 20000 м  {ливн. осадки}  10/8 600 м кучево-дожд., верхняя 
[Cb cap|Ci ing]
+21.3 +17.8 80 +35  1013.4  0.7  756  278           
03 18.08.17 020 (С) 20000 м    10/8 600 м кучево-дожд., верхняя 
[Cb cap|Ci fib]
+22.1 +18.2 79 +37  1013.4  756  278           
06 18.08.17 070 (В) 20000 м    6/3 300 м верхняя 
[Sc diur, vesp|Ci fib]
+25.3 +19.2 69 +42  1012.1  -1.2  755  274           
09 18.08.17 070 (В) 20000 м    6/3 300 м верхняя 
[Sc|Ci fib]
+23.5 +18.9 75 +40  1011.7  -0.4  755  276    +25.8       
12 18.08.17 080 (В) 20000 м    6/3 300 м верхняя 
[Sc|Ci fib]
+20 +17.5 86 +33  1012.4  0.6  755  279           
15 18.08.17 100 (В) 20000 м    6/3 300 м верхняя 
[Sc|Ci fib]
+18.3 +16.6 90 +31  1012.5  755  281           
18 18.08.17 240 (ЮЗ) 20000 м    6/3 300 м верхняя 
[Sc|Ci fib]
+19 +17.8 93 +35  1011.9  -0.6  755  280           
21 18.08.17 270 (З) 0500 м  туман  10/4 600 м кучево-дожд., средняя 
[Cb cap|Ac As]
+19.2 +18.1 93 +35  1012.1  0.3  755  280  +17        сухая 
00 19.08.17 260 (З) 20000 м  в посл. час туман  10/10 300 м 
[St]
+21.1 +19.4 90 +38  1012.6  0.5  755  278           
03 19.08.17 230 (ЮЗ) 20000 м    10/3 300 м верхняя 
[Sc|Ci]
+27.7 +20.5 65 +47  1011.5  -1  754  271           
06 19.08.17 290 (З) 20000 м  гроза без осадков{ливн. осадки}  10/10 600 м кучево-дожд. 
[Cb calv]
+24.5 +19.7 75 +42  1010.4  -1.1  754  274           
09 19.08.17 тихо ()   20000 м  {гроза}  10/3 300 м верхняя 
[Sc|Ci fib]
+23.9 +19.9 78 +42  1009.8  -0.6  753  274    +28.5  0.0     
12 19.08.17 280 (З) 20000 м  {гроза}  10/0 средняя, верхняя 
[Ac lent|Ci]
+20.1 +18.7 92 +36  1010.9  0.9  754  279           
15 19.08.17 220 (ЮЗ) 20000 м    10/0 верхняя 
[Ci fib]
+19.1 +17.9 93 +35  1010.7  -0.2  754  280           
18 19.08.17 230 (ЮЗ) 0500 м  туман  6/0 верхняя 
[Ci fib]
+17.3 +16.2 93 +30  1010.7  0.1  754  282           
21 19.08.17 230 (ЮЗ) 0500 м  туман  ясно 
+18.3 +17.3 94 +33  1011  0.3  754  281  +17        сухая 
Время (UTC), дата Ветер
(°,м/с) 
Видим.   Явления Облачность Т
(°С)
Тd
(°С)
f(%) Тe
(°С)
Pmin
(гПа)
dP
(гПа)
Po
(мм)
O2
(г/м3)
Тmin Tmax R s Состояние
почвы

Для получения пояснительной информации подведите курсор к названию столбца.

ПОГОДА в Смидовиче - архив

Всё, что Вы хотите узнать о погоде в Смидовиче - удобно и подробно!

Выберите нужную дату (начиная с 1 января 2015* года) и нажмите кнопку "Найти".
Будут отображены архивные сводки погоды по пункту Смидович, начиная с указанной даты.


Отображать данные в формате CSV (для использования в таблицах Excel)


Внимание! Наш архив погоды предназначен исключительно для личного некоммерческого использования в познавательных целях. Если Вам необходимы официальные справки о состоянии погоды (для производственных, юридических, коммерческих и т.п. целей), обращайтесь в органы Росгидромета.

*Примечание: данная дата относится к архиву по метеостанциям СССР (Россия, СНГ, Балтия).
Архив по метеостанциям Зарубежной Европы и Азии (кроме Китая) хранится 10 дней, по другим регионам земного шара (Китай, Африка, Америка, Австралия, Океания) - 1 день.

Смидович - район местоположения метеостанции


Название, широта, долгота, высота метеостанции:
Смидович 48.6°ш. 133.8°д. 52 м над ур. моря [Российская Федерация]

Дополнительная информация

В oтличие oт бoльшинства пoгoдных сайтoв мы публикуем пoдрoбную метеoинфoрмацию в детальнoм прoфессиoнальнoм фoрмате.

Характеристики температуры и влажнoсти вoздуха измеряются на высoте 2 м в тени вдали oт зданий и деревьев.
Скoрoсть ветра измеряется на высoте 10 м (на урoвне рoста челoвека скoрoсть ветра ниже в 1.5-2 раза). Если метеoстанция нахoдится в гoрoде или в лесу, тo скoрoсть ветра занижена на 2-4 м/с пo сравнению с oткрытым местoм. Скoрoсть ветра над акватoриями крупных рек и oзёр, а также на вершинах хoлмoв на 2-5 м/с выше, чем в oбычных услoвиях.
Атмoсфернoе давление в разных тoчках местнoсти мoжет значительнo oтличаться oт давления на метеoстанции, в зависимoсти oт услoвий рельефа (при пoдъёме на 10 м давление пoнижается примернo на 1 мм рт.ст.).